Location: Napa Soda Springs
(38.3907°N, 122.2794°W)
Time: 21:37:37
(UTC+00:00)

Lacrosse 5 rocket - Pass Details

Date: 29 October 2020
Orbit: 458 x 638 km, 57.0° (Epoch: 24 November)

Event Time Altitude Azimuth Distance (km) Brightness Sun altitude
Exits shadow 12:18:32 11° 18° (NNE) 1,575 3.9 -26.8°
Drops below altitude 10° 12:18:52 10° 21° (NNE) 1,688 4.1 -26.8°
Sets 12:21:15 0° 34° (NE) 2,569 5.2 -26.3°
